Regional Weather Roundup
Issued by NWS

Home | Current Version | Previous Version | Text Only | Print | Product List | Glossary Off
Versions: 1 2 3 4 5 6 7 8 9 10 11 12 13 14 15 16 17 18 19 20 21 22 23 24 25 26 27 28

000
ASUS45 KTFX 222310
RWRMT
MONTANA REGIONAL WEATHER ROUNDUP
NATIONAL WEATHER SERVICE GREAT FALLS MT
500 PM MDT FRI SEP 22 2017

NOTE: "FAIR" INDICATES FEW OR NO CLOUDS BELOW 12000 FEET WITH NO
SIGNIFICANT WEATHER AND/OR OBSTRUCTIONS TO VISIBILITY.

MTZ001>007-043-230000-
WEST OF THE DIVIDE

CITY           SKY/WX    TMP DP  RH WIND       PRES   REMARKS
KALISPELL      CLOUDY    51  30  44 NE7       30.00S
MISSOULA       CLOUDY    45  37  73 E7        30.03S
BUTTE          FLURRIES  34  32  92 W6        29.99R WCI  29
MULLAN PASS    LGT SNOW  34  32  92 CALM      29.98S FOG
ANACONDA         N/A     36  30  80 N10G16    30.01R WCI  28
DEER LODGE       N/A     37  30  75 N9        30.03S WCI  31
EUREKA           N/A     54  28  37 CALM      30.01S
HAMILTON         N/A     43  32  65 N9        30.01S
LIBBY            N/A     54  30  40 SW5       29.99S
PLAINS           N/A     51  33  50 CALM      30.02S
$$

MTZ008-052>055-230000-
SOUTHWEST MONTANA

CITY           SKY/WX    TMP DP  RH WIND       PRES   REMARKS
BOZEMAN        CLOUDY    42  35  76 W9        29.98R
DILLON         CLOUDY    37  32  82 NE8       29.96S WCI  31
W YELLOWSTONE  CLOUDY    39  34  81 VRB9G21   29.95R
ENNIS          CLOUDY    37  34  87 N9        30.01R WCI  31
THREE FORKS      N/A     41  36  82 NW5       29.99R
$$

MTZ009-010-012-014-046-048-049-054-230000-
EAST SLOPES AND CENTRAL MONTANA

CITY           SKY/WX    TMP DP  RH WIND       PRES   REMARKS
CUT BANK       CLOUDY    41  30  65 CALM      30.06S
GREAT FALLS    LGT RAIN  37  35  92 NE5       30.06S
MALMSTROM AFB  LGT RAIN  38  37  97 NE7       30.07S
HELENA         CLOUDY    38  36  92 W8        30.03S
BOWMANS CRNR   LGT SNOW  31  31 100 N6        30.04S WCI  26
CHOTEAU          N/A     34  34 100 CALM      30.09R FOG
FAIRFIELD      LGT SNOW  32  31  94 CALM      30.07S FOG
POWER          LGT RAIN  36  34  93 E5        30.06S
RAYNESFORD     PTSUNNY   39  35  85 E7        30.05S
ULM            FLURRIES  35  35 100 NW7       30.06F WCI  29
$$

MTZ011-013-016-021-045-047-050-051-230000-
NORTH CENTRAL MONTANA

CITY           SKY/WX    TMP DP  RH WIND       PRES   REMARKS
HAVRE          CLOUDY    47  32  56 CALM      30.07R
LEWISTOWN      CLOUDY    37  35  92 E8        30.04S WCI  31
N BAR RANCH    CLOUDY    34  34 100 SW3       30.06S FOG
CHINOOK          N/A     48  32  53 CALM      30.07R
DENTON           N/A     39  36  89 NE7       30.03S
GEYSER         DRIZZLE   37  36  96 E6        30.05R
JUDITH GAP     LGT RAIN  35  33  94 N9        30.02S WCI  28
WINIFRED       CLOUDY    40  36  86 NE8       30.04F
$$

MTZ017>020-022>027-061-062-230000-
NORTHEAST MONTANA

CITY           SKY/WX    TMP DP  RH WIND       PRES   REMARKS
GLASGOW        CLOUDY    47  38  71 N7        30.04S
JORDAN           N/A     44  39  82 NE6       30.06R
SIDNEY         CLOUDY    47  40  76 N15       30.01F
WOLF POINT     CLOUDY    47  40  76 N7        30.07R
MALTA          CLOUDY    48  37  66 CALM      30.06S
SCOBEY           N/A     43  36  76 NW2       30.04
$$

MTZ028>42-056>058-230000-
SOUTHCENTRAL AND SOUTHEAST MONTANA

CITY           SKY/WX    TMP DP  RH WIND       PRES   REMARKS
BAKER          CLOUDY    47  35  63 N14       30.01R
BILLINGS       CLOUDY    40  38  93 NE13      30.00S
LIVINGSTON     CLOUDY    38  33  82 E16       29.99R WCI  29
MILES CITY     CLOUDY    48  35  60 N12       30.03R
BIG TIMBER     PTSUNNY   36  34  93 NE10      30.04S WCI  28
EKALAKA          N/A     46  34  63 N12       29.97
HARLOWTON      LGT RAIN  34  34  98 MISG      30.03S
LAUREL           N/A     39  39 100 NE13      30.02R FOG     WCI  32
$$

REGIONAL REPORTS...DAKOTAS

CITY           SKY/WX    TMP DP  RH WIND       PRES   REMARKS
WILLISTON      CLOUDY    48  40  73 N13       30.03R
MINOT          CLOUDY    50  43  77 NW18G26   29.94R
BEACH          CLOUDY    45  37  76 N17       30.03R
CROSBY         CLOUDY    46  46 100 NW9       30.03R
TIOGA          CLOUDY    45  45 100 N12       30.02R
WATFORD CITY   CLOUDY    46  41  81 N14       30.00R
BISMARCK       CLOUDY    52  46  80 N15G21    29.86R
GRAND FORKS    CLOUDY    72  63  73 N15       29.67R
FARGO          CLOUDY    86  73  65 SE10      29.62S HX  93
BUFFALO SD       N/A     54  35  48 N18       29.88R
RAPID CITY     SUNNY     55  37  50 N26G33    29.88R
$$

REGIONAL REPORTS...WYOMING/IDAHO/WASHINGTON

CITY           SKY/WX    TMP DP  RH WIND       PRES   REMARKS
GILLETTE       CLOUDY    50  37  61 N13       29.95R
SHERIDAN       CLOUDY    46  40  79 CALM      29.98R
BUFFALO WY     CLOUDY    43  37  79 N7        29.97S
CODY           CLOUDY    39  35  86 N9        29.98R
IDAHO FALLS    CLOUDY    46  36  68 SW10      29.95S
SALMON         CLOUDY    50  33  52 CALM      29.93R
BOISE          CLOUDY    49  41  74 NE3       29.97S
SPOKANE        PTSUNNY   60  34  37 NE3       29.97F
$$

REGIONAL REPORTS...ALBERTA

CITY           SKY/WX    TMP DP  RH WIND       PRES   REMARKS
EDMONTON       CLOUDY    43  37  81 SE3       30.08F
CALGARY        CLOUDY    41  32  70 E7        30.05S
LETHBRIDGE     PTSUNNY   43  34  70 W8        30.07F
MEDICINE HAT   PTSUNNY   48  36  61 W3        30.07R
$$

REGIONAL REPORTS...SASKATCHEWAN

CITY           SKY/WX    TMP DP  RH WIND       PRES   REMARKS
SWIFT CURRENT  CLOUDY    45  34  65 NW8       30.05R
REGINA         CLOUDY    46  39  76 NW8       30.04S
SASKATOON      CLOUDY    46  37  71 NE3       30.07S
$$




USA.gov is the U.S. government's official web portal to all federal, state and local government web resources and services.